Time,TemperatureF,DewpointF,PressureIn,WindDirection,WindDirectionDegrees,WindSpeedMPH,WindSpeedGustMPH,Humidity,HourlyPrecipIn,Conditions,Clouds,dailyrainin,SoftwareType,DateUTC
2013-01-12 00:01:00,30.9,19.8,30.18,West,279,0.0,5.0,63,0.00,,,0.00,VWS V14.01,2013-01-12 08:01:00,
2013-01-12 00:06:00,31.0,19.9,30.18,West,279,0.0,2.0,63,0.00,,,0.00,VWS V14.01,2013-01-12 08:06:00,
2013-01-12 00:11:00,30.9,19.8,30.18,West,279,1.0,2.0,63,0.00,,,0.00,VWS V14.01,2013-01-12 08:11:00,
2013-01-12 00:16:00,30.7,19.6,30.18,West,279,0.0,2.0,63,0.00,,,0.00,VWS V14.01,2013-01-12 08:16:00,
2013-01-12 00:21:00,30.6,19.5,30.18,West,279,0.0,1.0,63,0.00,,,0.00,VWS V14.01,2013-01-12 08:21:00,
2013-01-12 00:26:00,30.6,19.5,30.19,West,279,0.0,1.0,63,0.00,,,0.00,VWS V14.01,2013-01-12 08:26:00,
2013-01-12 00:31:00,30.6,19.1,30.19,West,279,0.0,1.0,62,0.00,,,0.00,VWS V14.01,2013-01-12 08:31:00,
2013-01-12 00:36:00,30.8,19.3,30.19,West,279,1.0,1.0,62,0.00,,,0.00,VWS V14.01,2013-01-12 08:36:00,
2013-01-12 00:41:00,31.1,19.2,30.19,West,279,2.0,3.0,61,0.00,,,0.00,VWS V14.01,2013-01-12 08:41:00,
2013-01-12 00:46:00,31.4,19.5,30.19,West,279,0.0,4.0,61,0.00,,,0.00,VWS V14.01,2013-01-12 08:46:00,
2013-01-12 00:51:00,31.4,19.5,30.20,West,279,0.0,1.0,61,0.00,,,0.00,VWS V14.01,2013-01-12 08:51:00,
2013-01-12 00:56:00,31.4,19.1,30.20,West,279,0.0,1.0,60,0.00,,,0.00,VWS V14.01,2013-01-12 08:56:00,
2013-01-12 01:01:00,31.4,19.1,30.20,West,279,0.0,3.0,60,0.00,,,0.00,VWS V14.01,2013-01-12 09:01:00,
2013-01-12 01:06:00,31.3,19.0,30.20,West,279,0.0,0.0,60,0.00,,,0.00,VWS V14.01,2013-01-12 09:06:00,
2013-01-12 01:11:00,31.2,19.0,30.21,West,279,0.0,3.0,60,0.00,,,0.00,VWS V14.01,2013-01-12 09:11:00,
2013-01-12 01:16:00,31.2,19.0,30.21,West,279,0.0,4.0,60,0.00,,,0.00,VWS V14.01,2013-01-12 09:16:00,
2013-01-12 01:21:00,31.3,19.0,30.21,West,279,0.0,2.0,60,0.00,,,0.00,VWS V14.01,2013-01-12 09:21:00,
2013-01-12 01:26:00,31.4,18.7,30.21,West,279,0.0,2.0,59,0.00,,,0.00,VWS V14.01,2013-01-12 09:26:00,
2013-01-12 01:31:00,31.4,18.7,30.21,West,279,0.0,2.0,59,0.00,,,0.00,VWS V14.01,2013-01-12 09:31:00,
2013-01-12 01:36:00,31.3,18.6,30.21,West,279,0.0,0.0,59,0.00,,,0.00,VWS V14.01,2013-01-12 09:36:00,
2013-01-12 01:41:00,31.3,18.6,30.21,West,279,0.0,2.0,59,0.00,,,0.00,VWS V14.01,2013-01-12 09:41:00,
2013-01-12 01:46:00,31.2,18.5,30.21,West,279,0.0,2.0,59,0.00,,,0.00,VWS V14.01,2013-01-12 09:46:00,
2013-01-12 01:51:00,31.2,18.5,30.21,West,279,0.0,0.0,59,0.00,,,0.00,VWS V14.01,2013-01-12 09:51:00,
2013-01-12 01:56:00,31.1,18.5,30.21,West,279,0.0,0.0,59,0.00,,,0.00,VWS V14.01,2013-01-12 09:56:00,
2013-01-12 02:01:00,31.0,18.4,30.21,West,279,0.0,0.0,59,0.00,,,0.00,VWS V14.01,2013-01-12 10:01:00,
2013-01-12 02:06:00,30.8,18.2,30.21,West,279,0.0,0.0,59,0.00,,,0.00,VWS V14.01,2013-01-12 10:06:00,
2013-01-12 02:11:00,30.7,18.1,30.21,West,279,0.0,0.0,59,0.00,,,0.00,VWS V14.01,2013-01-12 10:11:00,
2013-01-12 02:16:00,30.6,18.0,30.21,West,279,0.0,0.0,59,0.00,,,0.00,VWS V14.01,2013-01-12 10:16:00,
2013-01-12 02:21:00,30.4,17.8,30.22,West,279,0.0,0.0,59,0.00,,,0.00,VWS V14.01,2013-01-12 10:21:00,
2013-01-12 02:26:00,30.3,17.7,30.21,West,279,0.0,0.0,59,0.00,,,0.00,VWS V14.01,2013-01-12 10:26:00,
2013-01-12 02:31:00,30.1,17.5,30.21,West,279,0.0,0.0,59,0.00,,,0.00,VWS V14.01,2013-01-12 10:31:00,
2013-01-12 02:36:00,29.9,17.7,30.21,West,279,0.0,0.0,60,0.00,,,0.00,VWS V14.01,2013-01-12 10:36:00,
2013-01-12 02:41:00,29.7,17.5,30.21,West,279,0.0,0.0,60,0.00,,,0.00,VWS V14.01,2013-01-12 10:41:00,
2013-01-12 02:46:00,29.5,17.7,30.22,West,279,0.0,0.0,61,0.00,,,0.00,VWS V14.01,2013-01-12 10:46:00,
2013-01-12 02:51:00,29.3,17.9,30.22,West,279,0.0,0.0,62,0.00,,,0.00,VWS V14.01,2013-01-12 10:51:00,
2013-01-12 02:56:00,29.1,18.1,30.22,West,279,0.0,0.0,63,0.00,,,0.00,VWS V14.01,2013-01-12 10:56:00,
2013-01-12 03:01:00,28.9,17.9,30.22,West,279,0.0,0.0,63,0.00,,,0.00,VWS V14.01,2013-01-12 11:01:00,
2013-01-12 03:06:00,28.7,18.4,30.22,West,279,0.0,0.0,65,0.00,,,0.00,VWS V14.01,2013-01-12 11:06:00,
2013-01-12 03:11:00,28.6,18.7,30.22,West,279,0.0,0.0,66,0.00,,,0.00,VWS V14.01,2013-01-12 11:11:00,
2013-01-12 03:16:00,28.5,19.0,30.22,West,279,0.0,0.0,67,0.00,,,0.00,VWS V14.01,2013-01-12 11:16:00,
2013-01-12 03:21:00,28.7,20.2,30.22,West,279,0.0,0.0,70,0.00,,,0.00,VWS V14.01,2013-01-12 11:21:00,
2013-01-12 03:26:00,28.8,19.9,30.22,West,279,0.0,0.0,69,0.00,,,0.00,VWS V14.01,2013-01-12 11:26:00,
2013-01-12 03:31:00,28.5,19.3,30.23,West,279,0.0,0.0,68,0.00,,,0.00,VWS V14.01,2013-01-12 11:31:00,
2013-01-12 03:36:00,28.3,19.5,30.23,West,279,0.0,0.0,69,0.00,,,0.00,VWS V14.01,2013-01-12 11:36:00,
2013-01-12 03:41:00,28.0,19.2,30.23,West,279,0.0,0.0,69,0.00,,,0.00,VWS V14.01,2013-01-12 11:41:00,
2013-01-12 03:46:00,27.6,18.8,30.22,West,279,0.0,0.0,69,0.00,,,0.00,VWS V14.01,2013-01-12 11:46:00,
2013-01-12 03:51:00,27.3,18.5,30.23,West,279,0.0,0.0,69,0.00,,,0.00,VWS V14.01,2013-01-12 11:51:00,
2013-01-12 03:56:00,27.1,18.6,30.23,West,279,0.0,0.0,70,0.00,,,0.00,VWS V14.01,2013-01-12 11:56:00,
2013-01-12 04:01:00,26.9,18.4,30.23,West,279,0.0,0.0,70,0.00,,,0.00,VWS V14.01,2013-01-12 12:01:00,
2013-01-12 04:06:00,26.6,18.5,30.22,West,279,0.0,0.0,71,0.00,,,0.00,VWS V14.01,2013-01-12 12:06:00,
2013-01-12 04:11:00,26.4,18.3,30.22,West,279,0.0,0.0,71,0.00,,,0.00,VWS V14.01,2013-01-12 12:11:00,
2013-01-12 04:16:00,26.2,18.4,30.22,West,279,0.0,0.0,72,0.00,,,0.00,VWS V14.01,2013-01-12 12:16:00,
2013-01-12 04:21:00,26.0,18.2,30.23,West,279,0.0,0.0,72,0.00,,,0.00,VWS V14.01,2013-01-12 12:21:00,
2013-01-12 04:26:00,25.8,18.0,30.23,West,279,0.0,0.0,72,0.00,,,0.00,VWS V14.01,2013-01-12 12:26:00,
2013-01-12 04:31:00,25.7,18.3,30.23,West,279,0.0,0.0,73,0.00,,,0.00,VWS V14.01,2013-01-12 12:31:00,
2013-01-12 04:36:00,25.5,18.1,30.23,West,279,0.0,0.0,73,0.00,,,0.00,VWS V14.01,2013-01-12 12:36:00,
2013-01-12 04:41:00,25.4,18.0,30.23,West,279,0.0,0.0,73,0.00,,,0.00,VWS V14.01,2013-01-12 12:41:00,
2013-01-12 04:46:00,25.3,18.2,30.23,West,279,0.0,0.0,74,0.00,,,0.00,VWS V14.01,2013-01-12 12:46:00,
2013-01-12 04:51:00,25.3,18.2,30.23,West,279,0.0,0.0,74,0.00,,,0.00,VWS V14.01,2013-01-12 12:51:00,
2013-01-12 04:56:00,25.2,18.1,30.24,West,279,0.0,0.0,74,0.00,,,0.00,VWS V14.01,2013-01-12 12:56:00,
2013-01-12 05:01:00,24.9,17.8,30.23,West,279,0.0,0.0,74,0.00,,,0.00,VWS V14.01,2013-01-12 13:01:00,
2013-01-12 05:06:00,24.6,17.2,30.23,West,279,0.0,0.0,73,0.00,,,0.00,VWS V14.01,2013-01-12 13:06:00,
2013-01-12 05:11:00,24.2,17.1,30.23,West,279,0.0,0.0,74,0.00,,,0.00,VWS V14.01,2013-01-12 13:11:00,
2013-01-12 05:16:00,23.9,16.8,30.23,West,279,0.0,0.0,74,0.00,,,0.00,VWS V14.01,2013-01-12 13:16:00,
2013-01-12 05:21:00,23.7,16.6,30.24,West,279,0.0,0.0,74,0.00,,,0.00,VWS V14.01,2013-01-12 13:21:00,
2013-01-12 05:26:00,23.5,16.5,30.24,West,279,0.0,0.0,74,0.00,,,0.00,VWS V14.01,2013-01-12 13:26:00,
2013-01-12 05:31:00,23.3,16.2,30.24,West,279,0.0,0.0,74,0.00,,,0.00,VWS V14.01,2013-01-12 13:31:00,
2013-01-12 05:36:00,22.9,15.9,30.25,West,279,0.0,0.0,74,0.00,,,0.00,VWS V14.01,2013-01-12 13:36:00,
2013-01-12 05:41:00,22.6,15.6,30.24,West,279,0.0,0.0,74,0.00,,,0.00,VWS V14.01,2013-01-12 13:41:00,
2013-01-12 05:46:00,22.3,15.3,30.25,West,279,0.0,0.0,74,0.00,,,0.00,VWS V14.01,2013-01-12 13:46:00,
2013-01-12 05:51:00,22.1,15.4,30.25,West,279,0.0,0.0,75,0.00,,,0.00,VWS V14.01,2013-01-12 13:51:00,
2013-01-12 05:56:00,21.9,15.2,30.25,West,279,0.0,0.0,75,0.00,,,0.00,VWS V14.01,2013-01-12 13:56:00,
2013-01-12 06:01:00,21.7,15.0,30.25,West,279,0.0,0.0,75,0.00,,,0.00,VWS V14.01,2013-01-12 14:01:00,
2013-01-12 06:06:00,21.5,14.8,30.25,West,279,0.0,0.0,75,0.00,,,0.00,VWS V14.01,2013-01-12 14:06:00,
2013-01-12 06:11:00,21.4,15.0,30.26,West,279,0.0,0.0,76,0.00,,,0.00,VWS V14.01,2013-01-12 14:11:00,
2013-01-12 06:16:00,21.4,15.3,30.26,West,279,0.0,0.0,77,0.00,,,0.00,VWS V14.01,2013-01-12 14:16:00,
2013-01-12 06:21:00,21.5,15.4,30.26,West,279,0.0,0.0,77,0.00,,,0.00,VWS V14.01,2013-01-12 14:21:00,
2013-01-12 06:26:00,21.4,15.3,30.27,West,279,0.0,0.0,77,0.00,,,0.00,VWS V14.01,2013-01-12 14:26:00,
2013-01-12 06:31:00,21.2,15.1,30.27,West,279,0.0,0.0,77,0.00,,,0.00,VWS V14.01,2013-01-12 14:31:00,
2013-01-12 06:36:00,20.7,14.0,30.28,West,279,0.0,1.0,75,0.00,,,0.00,VWS V14.01,2013-01-12 14:36:00,
2013-01-12 06:41:00,20.0,13.1,30.28,West,279,0.0,1.0,74,0.00,,,0.00,VWS V14.01,2013-01-12 14:41:00,
2013-01-12 06:46:00,19.4,12.5,30.28,West,279,0.0,1.0,74,0.00,,,0.00,VWS V14.01,2013-01-12 14:46:00,
2013-01-12 06:51:00,19.0,12.1,30.28,West,279,0.0,0.0,74,0.00,,,0.00,VWS V14.01,2013-01-12 14:51:00,
2013-01-12 06:56:00,18.8,11.9,30.28,West,279,0.0,0.0,74,0.00,,,0.00,VWS V14.01,2013-01-12 14:56:00,
2013-01-12 07:01:00,18.6,12.0,30.28,West,279,0.0,0.0,75,0.00,,,0.00,VWS V14.01,2013-01-12 15:01:00,
2013-01-12 07:06:00,18.7,12.4,30.28,West,279,0.0,0.0,76,0.00,,,0.00,VWS V14.01,2013-01-12 15:06:00,
2013-01-12 07:11:00,18.7,12.4,30.29,West,279,0.0,0.0,76,0.00,,,0.00,VWS V14.01,2013-01-12 15:11:00,
2013-01-12 07:16:00,18.8,12.5,30.29,West,279,0.0,0.0,76,0.00,,,0.00,VWS V14.01,2013-01-12 15:16:00,
2013-01-12 07:21:00,19.0,13.0,30.29,West,279,0.0,0.0,77,0.00,,,0.00,VWS V14.01,2013-01-12 15:21:00,
2013-01-12 07:26:00,19.4,13.4,30.30,West,279,0.0,0.0,77,0.00,,,0.00,VWS V14.01,2013-01-12 15:26:00,
2013-01-12 07:31:00,19.7,13.7,30.30,West,279,0.0,0.0,77,0.00,,,0.00,VWS V14.01,2013-01-12 15:31:00,
2013-01-12 07:36:00,20.3,14.3,30.30,West,279,0.0,0.0,77,0.00,,,0.00,VWS V14.01,2013-01-12 15:36:00,
2013-01-12 07:41:00,21.0,14.9,30.30,West,279,0.0,0.0,77,0.00,,,0.00,VWS V14.01,2013-01-12 15:41:00,
2013-01-12 07:46:00,22.3,16.2,30.30,West,279,0.0,0.0,77,0.00,,,0.00,VWS V14.01,2013-01-12 15:46:00,
2013-01-12 07:51:00,23.1,16.7,30.31,West,279,0.0,0.0,76,0.00,,,0.00,VWS V14.01,2013-01-12 15:51:00,
2013-01-12 07:56:00,23.6,16.9,30.31,West,279,0.0,0.0,75,0.00,,,0.00,VWS V14.01,2013-01-12 15:56:00,
2013-01-12 08:01:00,24.2,17.1,30.31,West,279,0.0,0.0,74,0.00,,,0.00,VWS V14.01,2013-01-12 16:01:00,
2013-01-12 08:06:00,24.6,17.5,30.31,West,279,0.0,0.0,74,0.00,,,0.00,VWS V14.01,2013-01-12 16:06:00,
2013-01-12 08:11:00,25.0,17.6,30.31,West,279,0.0,0.0,73,0.00,,,0.00,VWS V14.01,2013-01-12 16:11:00,
2013-01-12 08:16:00,25.3,17.5,30.31,West,279,0.0,0.0,72,0.00,,,0.00,VWS V14.01,2013-01-12 16:16:00,
2013-01-12 08:21:00,25.9,17.8,30.31,West,279,0.0,0.0,71,0.00,,,0.00,VWS V14.01,2013-01-12 16:21:00,
2013-01-12 08:26:00,26.4,18.0,30.31,West,279,0.0,0.0,70,0.00,,,0.00,VWS V14.01,2013-01-12 16:26:00,
2013-01-12 08:31:00,27.3,18.5,30.31,West,279,0.0,0.0,69,0.00,,,0.00,VWS V14.01,2013-01-12 16:31:00,
2013-01-12 08:36:00,28.2,18.7,30.31,West,279,0.0,0.0,67,0.00,,,0.00,VWS V14.01,2013-01-12 16:36:00,
2013-01-12 08:41:00,28.8,18.9,30.32,West,279,0.0,0.0,66,0.00,,,0.00,VWS V14.01,2013-01-12 16:41:00,
2013-01-12 08:46:00,29.8,19.5,30.32,West,279,0.0,0.0,65,0.00,,,0.00,VWS V14.01,2013-01-12 16:46:00,
2013-01-12 08:51:00,30.0,19.0,30.32,West,279,0.0,0.0,63,0.00,,,0.00,VWS V14.01,2013-01-12 16:51:00,
2013-01-12 08:56:00,31.0,19.5,30.32,West,279,0.0,0.0,62,0.00,,,0.00,VWS V14.01,2013-01-12 16:56:00,
2013-01-12 09:01:00,31.7,19.4,30.32,West,279,0.0,0.0,60,0.00,,,0.00,VWS V14.01,2013-01-12 17:01:00,
2013-01-12 09:06:00,32.0,19.3,30.32,West,279,0.0,3.0,59,0.00,,,0.00,VWS V14.01,2013-01-12 17:06:00,
2013-01-12 09:11:00,32.3,19.2,30.32,West,279,0.0,3.0,58,0.00,,,0.00,VWS V14.01,2013-01-12 17:11:00,
2013-01-12 09:16:00,32.8,19.7,30.32,West,279,0.0,3.0,58,0.00,,,0.00,VWS V14.01,2013-01-12 17:16:00,
2013-01-12 09:21:00,33.4,21.4,30.32,West,279,0.0,0.0,61,0.00,,,0.00,VWS V14.01,2013-01-12 17:21:00,
2013-01-12 09:26:00,34.0,20.0,30.32,West,279,0.0,1.0,56,0.00,,,0.00,VWS V14.01,2013-01-12 17:26:00,
2013-01-12 09:31:00,34.4,19.9,30.32,West,279,0.0,1.0,55,0.00,,,0.00,VWS V14.01,2013-01-12 17:31:00,
2013-01-12 09:36:00,35.0,20.0,30.32,West,279,0.0,1.0,54,0.00,,,0.00,VWS V14.01,2013-01-12 17:36:00,
2013-01-12 09:41:00,35.1,19.7,30.33,West,279,0.0,1.0,53,0.00,,,0.00,VWS V14.01,2013-01-12 17:41:00,
2013-01-12 09:46:00,35.7,20.3,30.32,West,279,0.0,1.0,53,0.00,,,0.00,VWS V14.01,2013-01-12 17:46:00,
2013-01-12 09:51:00,36.0,19.6,30.32,West,279,0.0,1.0,51,0.00,,,0.00,VWS V14.01,2013-01-12 17:51:00,
2013-01-12 09:56:00,35.8,19.9,30.32,West,279,0.0,1.0,52,0.00,,,0.00,VWS V14.01,2013-01-12 17:56:00,
2013-01-12 10:01:00,35.9,19.5,30.32,West,279,0.0,1.0,51,0.00,,,0.00,VWS V14.01,2013-01-12 18:01:00,
2013-01-12 10:06:00,36.6,20.2,30.32,West,279,0.0,1.0,51,0.00,,,0.00,VWS V14.01,2013-01-12 18:06:00,
2013-01-12 10:11:00,37.1,20.2,30.32,West,279,0.0,1.0,50,0.00,,,0.00,VWS V14.01,2013-01-12 18:11:00,
2013-01-12 10:16:00,38.0,20.5,30.32,West,279,0.0,1.0,49,0.00,,,0.00,VWS V14.01,2013-01-12 18:16:00,
2013-01-12 10:21:00,38.1,20.2,30.32,West,279,1.0,2.0,48,0.00,,,0.00,VWS V14.01,2013-01-12 18:21:00,
2013-01-12 10:26:00,38.2,19.8,30.32,West,279,1.0,3.0,47,0.00,,,0.00,VWS V14.01,2013-01-12 18:26:00,
2013-01-12 10:31:00,38.3,19.9,30.32,West,280,0.0,3.0,47,0.00,,,0.00,VWS V14.01,2013-01-12 18:31:00,
2013-01-12 10:36:00,38.5,19.5,30.32,West,280,0.0,1.0,46,0.00,,,0.00,VWS V14.01,2013-01-12 18:36:00,
2013-01-12 10:41:00,38.4,19.4,30.32,West,280,0.0,2.0,46,0.00,,,0.00,VWS V14.01,2013-01-12 18:41:00,
2013-01-12 10:46:00,39.0,19.0,30.31,West,281,0.0,3.0,44,0.00,,,0.00,VWS V14.01,2013-01-12 18:46:00,
2013-01-12 10:51:00,39.4,19.3,30.31,WNW,282,0.0,0.0,44,0.00,,,0.00,VWS V14.01,2013-01-12 18:51:00,
2013-01-12 10:56:00,39.9,19.2,30.31,ENE,62,5.0,5.0,43,0.00,,,0.00,VWS V14.01,2013-01-12 18:56:00,
2013-01-12 11:01:00,39.5,18.3,30.31,ENE,61,0.0,5.0,42,0.00,,,0.00,VWS V14.01,2013-01-12 19:01:00,
2013-01-12 11:06:00,40.0,18.2,30.30,ENE,63,1.0,4.0,41,0.00,,,0.00,VWS V14.01,2013-01-12 19:06:00,
2013-01-12 11:11:00,40.2,17.2,30.30,ESE,113,0.0,6.0,39,0.00,,,0.00,VWS V14.01,2013-01-12 19:11:00,
2013-01-12 11:15:00,40.5,16.3,30.30,ESE,112,3.0,6.0,37,0.00,,,0.00,VWS V14.01,2013-01-12 19:15:00,
2013-01-12 11:20:00,40.6,17.6,30.30,ESE,110,0.0,0.0,39,0.00,,,0.00,VWS V14.01,2013-01-12 19:20:00,
2013-01-12 11:25:00,41.1,18.0,30.29,ESE,110,0.0,0.0,39,0.00,,,0.00,VWS V14.01,2013-01-12 19:25:00,
2013-01-12 11:30:00,41.7,17.4,30.29,ESE,109,0.0,5.0,37,0.00,,,0.00,VWS V14.01,2013-01-12 19:30:00,
2013-01-12 11:35:00,41.8,16.8,30.28,ENE,59,0.0,2.0,36,0.00,,,0.00,VWS V14.01,2013-01-12 19:35:00,
2013-01-12 14:45:00,45.5,11.7,30.23,NNE,24,2.0,4.0,25,0.00,,,0.00,VWS V14.01,2013-01-12 22:45:00,
2013-01-12 14:50:00,45.2,12.4,30.23,NNE,24,0.0,0.0,26,0.00,,,0.00,VWS V14.01,2013-01-12 22:50:00,
2013-01-12 14:55:00,45.6,12.7,30.23,NNE,24,0.0,1.0,26,0.00,,,0.00,VWS V14.01,2013-01-12 22:55:00,
2013-01-12 15:00:00,46.1,12.2,30.22,NNE,24,0.0,1.0,25,0.00,,,0.00,VWS V14.01,2013-01-12 23:00:00,
2013-01-12 15:05:00,45.8,12.9,30.23,North,5,1.0,1.0,26,0.00,,,0.00,VWS V14.01,2013-01-12 23:05:00,
2013-01-12 15:10:00,45.3,12.4,30.22,NNE,21,0.0,5.0,26,0.00,,,0.00,VWS V14.01,2013-01-12 23:10:00,
2013-01-12 15:15:00,45.2,12.4,30.22,NNE,21,0.0,5.0,26,0.00,,,0.00,VWS V14.01,2013-01-12 23:15:00,
2013-01-12 15:20:00,45.4,12.5,30.22,NNE,21,0.0,0.0,26,0.00,,,0.00,VWS V14.01,2013-01-12 23:20:00,
2013-01-12 15:25:00,45.4,12.5,30.22,NNE,21,1.0,3.0,26,0.00,,,0.00,VWS V14.01,2013-01-12 23:25:00,
2013-01-12 15:30:00,45.3,12.4,30.22,NNE,21,0.0,4.0,26,0.00,,,0.00,VWS V14.01,2013-01-12 23:30:00,
2013-01-12 15:35:00,44.8,12.9,30.22,East,98,0.0,0.0,27,0.00,,,0.00,VWS V14.01,2013-01-12 23:35:00,
2013-01-12 15:40:00,44.7,12.8,30.22,East,98,0.0,1.0,27,0.00,,,0.00,VWS V14.01,2013-01-12 23:40:00,
2013-01-12 15:45:00,44.9,13.0,30.22,East,98,0.0,2.0,27,0.00,,,0.00,VWS V14.01,2013-01-12 23:45:00,
2013-01-12 15:50:00,44.6,12.7,30.22,East,98,0.0,0.0,27,0.00,,,0.00,VWS V14.01,2013-01-12 23:50:00,
2013-01-12 15:55:00,44.1,13.1,30.22,East,98,0.0,5.0,28,0.00,,,0.00,VWS V14.01,2013-01-12 23:55:00,
2013-01-12 16:00:00,43.6,13.5,30.22,East,99,0.0,5.0,29,0.00,,,0.00,VWS V14.01,2013-01-13 00:00:00,
2013-01-12 16:05:00,43.4,13.3,30.21,East,101,0.0,0.0,29,0.00,,,0.00,VWS V14.01,2013-01-13 00:05:00,
2013-01-12 16:10:00,43.4,13.3,30.22,East,101,0.0,1.0,29,0.00,,,0.00,VWS V14.01,2013-01-13 00:10:00,
2013-01-12 16:15:00,43.2,13.9,30.21,East,101,0.0,2.0,30,0.00,,,0.00,VWS V14.01,2013-01-13 00:15:00,
2013-01-12 16:20:00,43.0,13.7,30.21,East,99,2.0,2.0,30,0.00,,,0.00,VWS V14.01,2013-01-13 00:20:00,
2013-01-12 16:25:00,43.0,13.7,30.21,East,99,0.0,2.0,30,0.00,,,0.00,VWS V14.01,2013-01-13 00:25:00,
2013-01-12 16:30:00,42.7,13.4,30.21,East,99,0.0,2.0,30,0.00,,,0.00,VWS V14.01,2013-01-13 00:30:00,
2013-01-12 16:35:00,42.5,14.0,30.21,East,99,0.0,0.0,31,0.00,,,0.00,VWS V14.01,2013-01-13 00:35:00,
2013-01-12 16:40:00,42.3,13.8,30.22,East,99,0.0,0.0,31,0.00,,,0.00,VWS V14.01,2013-01-13 00:40:00,
2013-01-12 16:45:00,42.2,13.8,30.21,East,99,0.0,4.0,31,0.00,,,0.00,VWS V14.01,2013-01-13 00:45:00,
2013-01-12 16:50:00,42.1,13.7,30.22,East,99,0.0,0.0,31,0.00,,,0.00,VWS V14.01,2013-01-13 00:50:00,
2013-01-12 16:55:00,41.9,13.5,30.21,East,99,0.0,0.0,31,0.00,,,0.00,VWS V14.01,2013-01-13 00:55:00,
2013-01-12 17:00:00,41.7,13.3,30.21,East,99,0.0,0.0,31,0.00,,,0.00,VWS V14.01,2013-01-13 01:00:00,
2013-01-12 17:05:00,41.4,13.1,30.21,East,99,0.0,0.0,31,0.00,,,0.00,VWS V14.01,2013-01-13 01:05:00,
2013-01-12 17:10:00,41.2,13.6,30.21,East,99,1.0,2.0,32,0.00,,,0.00,VWS V14.01,2013-01-13 01:10:00,
2013-01-12 17:15:00,41.1,13.5,30.21,East,99,0.0,2.0,32,0.00,,,0.00,VWS V14.01,2013-01-13 01:15:00,
2013-01-12 17:20:00,40.8,13.9,30.21,East,99,0.0,0.0,33,0.00,,,0.00,VWS V14.01,2013-01-13 01:20:00,
2013-01-12 17:25:00,40.5,14.4,30.21,East,99,0.0,1.0,34,0.00,,,0.00,VWS V14.01,2013-01-13 01:25:00,
2013-01-12 17:30:00,40.2,14.1,30.21,East,99,0.0,1.0,34,0.00,,,0.00,VWS V14.01,2013-01-13 01:30:00,
2013-01-12 17:35:00,40.0,13.9,30.21,East,99,0.0,1.0,34,0.00,,,0.00,VWS V14.01,2013-01-13 01:35:00,
2013-01-12 17:40:00,39.8,14.4,30.21,East,99,0.0,1.0,35,0.00,,,0.00,VWS V14.01,2013-01-13 01:40:00,
2013-01-12 17:45:00,39.5,14.1,30.21,East,99,0.0,1.0,35,0.00,,,0.00,VWS V14.01,2013-01-13 01:45:00,
2013-01-12 17:50:00,39.3,14.6,30.21,East,99,0.0,2.0,36,0.00,,,0.00,VWS V14.01,2013-01-13 01:50:00,
2013-01-12 17:55:00,39.2,14.5,30.21,East,99,0.0,4.0,36,0.00,,,0.00,VWS V14.01,2013-01-13 01:55:00,
2013-01-12 18:00:00,39.0,14.3,30.21,East,99,0.0,4.0,36,0.00,,,0.00,VWS V14.01,2013-01-13 02:00:00,
2013-01-12 18:05:00,38.8,14.8,30.21,East,99,0.0,1.0,37,0.00,,,0.00,VWS V14.01,2013-01-13 02:05:00,
2013-01-12 18:10:00,38.5,14.5,30.21,East,99,0.0,1.0,37,0.00,,,0.00,VWS V14.01,2013-01-13 02:10:00,
2013-01-12 18:15:00,38.2,14.8,30.22,East,99,1.0,1.0,38,0.00,,,0.00,VWS V14.01,2013-01-13 02:15:00,
2013-01-12 18:20:00,37.5,13.0,30.22,East,99,0.0,3.0,36,0.00,,,0.00,VWS V14.01,2013-01-13 02:20:00,
2013-01-12 18:25:00,36.2,13.6,30.22,East,87,0.0,4.0,39,0.00,,,0.00,VWS V14.01,2013-01-13 02:25:00,
2013-01-12 18:30:00,35.6,16.9,30.22,ENE,69,0.0,5.0,46,0.00,,,0.00,VWS V14.01,2013-01-13 02:30:00,
2013-01-12 18:35:00,35.3,18.1,30.22,ENE,59,0.0,4.0,49,0.00,,,0.00,VWS V14.01,2013-01-13 02:35:00,
2013-01-12 18:40:00,35.0,18.2,30.22,NE,41,1.0,6.0,50,0.00,,,0.00,VWS V14.01,2013-01-13 02:40:00,
2013-01-12 18:45:00,34.4,18.2,30.22,NE,40,0.0,6.0,51,0.00,,,0.00,VWS V14.01,2013-01-13 02:45:00,
2013-01-12 18:50:00,34.3,18.5,30.22,NE,40,0.0,1.0,52,0.00,,,0.00,VWS V14.01,2013-01-13 02:50:00,
2013-01-12 18:55:00,33.8,18.5,30.22,NE,40,0.0,1.0,53,0.00,,,0.00,VWS V14.01,2013-01-13 02:55:00,
2013-01-12 19:00:00,33.5,18.6,30.22,NE,40,0.0,1.0,54,0.00,,,0.00,VWS V14.01,2013-01-13 03:00:00,
2013-01-12 19:05:00,33.2,18.8,30.23,NE,40,0.0,0.0,55,0.00,,,0.00,VWS V14.01,2013-01-13 03:05:00,
2013-01-12 19:10:00,32.9,18.5,30.23,NE,40,0.0,0.0,55,0.00,,,0.00,VWS V14.01,2013-01-13 03:10:00,
2013-01-12 19:15:00,32.4,18.0,30.23,NE,40,0.0,0.0,55,0.00,,,0.00,VWS V14.01,2013-01-13 03:15:00,
2013-01-12 19:20:00,31.9,17.6,30.23,NE,40,0.0,0.0,55,0.00,,,0.00,VWS V14.01,2013-01-13 03:20:00,
2013-01-12 19:25:00,31.4,17.5,30.23,NE,40,0.0,0.0,56,0.00,,,0.00,VWS V14.01,2013-01-13 03:25:00,
2013-01-12 19:30:00,31.0,17.2,30.23,NE,40,0.0,1.0,56,0.00,,,0.00,VWS V14.01,2013-01-13 03:30:00,
2013-01-12 19:35:00,30.8,17.0,30.23,NE,40,0.0,0.0,56,0.00,,,0.00,VWS V14.01,2013-01-13 03:35:00,
2013-01-12 19:40:00,30.6,16.8,30.23,NE,40,0.0,2.0,56,0.00,,,0.00,VWS V14.01,2013-01-13 03:40:00,
2013-01-12 19:45:00,30.3,16.5,30.23,NE,40,0.0,2.0,56,0.00,,,0.00,VWS V14.01,2013-01-13 03:45:00,
2013-01-12 19:50:00,30.1,16.3,30.23,NE,40,0.0,0.0,56,0.00,,,0.00,VWS V14.01,2013-01-13 03:50:00,
2013-01-12 19:55:00,30.0,15.4,30.23,NE,40,0.0,2.0,54,0.00,,,0.00,VWS V14.01,2013-01-13 03:55:00,
2013-01-12 20:00:00,29.9,15.3,30.23,NE,40,0.0,2.0,54,0.00,,,0.00,VWS V14.01,2013-01-13 04:00:00,
2013-01-12 20:05:00,29.8,14.8,30.23,NE,40,0.0,0.0,53,0.00,,,0.00,VWS V14.01,2013-01-13 04:05:00,
2013-01-12 20:10:00,29.6,14.1,30.24,NE,40,0.0,0.0,52,0.00,,,0.00,VWS V14.01,2013-01-13 04:10:00,
2013-01-12 20:15:00,29.3,13.9,30.24,NE,40,0.0,0.0,52,0.00,,,0.00,VWS V14.01,2013-01-13 04:15:00,
2013-01-12 20:20:00,29.1,14.1,30.24,NE,40,0.0,0.0,53,0.00,,,0.00,VWS V14.01,2013-01-13 04:20:00,
2013-01-12 20:25:00,28.9,14.4,30.24,NE,40,0.0,0.0,54,0.00,,,0.00,VWS V14.01,2013-01-13 04:25:00,
2013-01-12 20:30:00,28.9,14.8,30.24,NE,40,0.0,0.0,55,0.00,,,0.00,VWS V14.01,2013-01-13 04:30:00,
2013-01-12 20:35:00,28.8,14.7,30.24,NE,40,0.0,0.0,55,0.00,,,0.00,VWS V14.01,2013-01-13 04:35:00,
2013-01-12 20:40:00,28.7,15.0,30.24,NE,40,0.0,0.0,56,0.00,,,0.00,VWS V14.01,2013-01-13 04:40:00,
2013-01-12 20:45:00,28.6,14.9,30.24,NE,40,0.0,0.0,56,0.00,,,0.00,VWS V14.01,2013-01-13 04:45:00,
2013-01-12 20:50:00,28.5,14.8,30.24,NE,40,0.0,0.0,56,0.00,,,0.00,VWS V14.01,2013-01-13 04:50:00,
2013-01-12 20:55:00,28.5,15.2,30.24,NE,40,0.0,0.0,57,0.00,,,0.00,VWS V14.01,2013-01-13 04:55:00,
2013-01-12 21:00:00,28.4,15.5,30.24,NE,40,0.0,1.0,58,0.00,,,0.00,VWS V14.01,2013-01-13 05:00:00,
2013-01-12 21:02:00,28.3,15.4,30.24,NE,40,0.0,2.0,58,0.00,,,0.00,VWS V14.01,2013-01-13 05:02:00,
2013-01-12 21:03:00,28.3,15.4,30.24,NE,40,0.0,2.0,58,0.00,,,0.00,VWS V14.01,2013-01-13 05:03:00,
2013-01-12 21:08:00,28.0,15.1,30.24,NE,40,0.0,0.0,58,0.00,,,0.00,VWS V14.01,2013-01-13 05:08:00,
2013-01-12 21:13:00,27.8,15.0,30.24,NE,40,0.0,0.0,58,0.00,,,0.00,VWS V14.01,2013-01-13 05:13:00,
2013-01-12 21:18:00,27.6,14.8,30.24,NE,40,0.0,0.0,58,0.00,,,0.00,VWS V14.01,2013-01-13 05:18:00,
2013-01-12 21:23:00,27.4,14.6,30.24,NE,40,0.0,0.0,58,0.00,,,0.00,VWS V14.01,2013-01-13 05:23:00,
2013-01-12 21:28:00,27.3,14.5,30.24,NE,40,0.0,0.0,58,0.00,,,0.00,VWS V14.01,2013-01-13 05:28:00,
2013-01-12 21:33:00,27.3,13.7,30.24,NE,40,0.0,1.0,56,0.00,,,0.00,VWS V14.01,2013-01-13 05:33:00,
2013-01-12 21:38:00,27.2,12.8,30.24,NE,40,0.0,1.0,54,0.00,,,0.00,VWS V14.01,2013-01-13 05:38:00,
2013-01-12 21:43:00,27.0,11.7,30.24,NE,40,0.0,1.0,52,0.00,,,0.00,VWS V14.01,2013-01-13 05:43:00,
2013-01-12 21:48:00,26.9,11.6,30.24,NE,40,0.0,1.0,52,0.00,,,0.00,VWS V14.01,2013-01-13 05:48:00,
2013-01-12 21:53:00,26.7,11.4,30.25,NE,40,0.0,1.0,52,0.00,,,0.00,VWS V14.01,2013-01-13 05:53:00,
2013-01-12 21:58:00,26.6,11.8,30.25,NE,40,0.0,1.0,53,0.00,,,0.00,VWS V14.01,2013-01-13 05:58:00,
2013-01-12 22:03:00,26.4,11.2,30.25,NE,40,0.0,1.0,52,0.00,,,0.00,VWS V14.01,2013-01-13 06:03:00,
2013-01-12 22:08:00,26.2,11.4,30.25,NE,40,0.0,1.0,53,0.00,,,0.00,VWS V14.01,2013-01-13 06:08:00,
2013-01-12 22:13:00,26.1,11.7,30.25,NE,40,0.0,1.0,54,0.00,,,0.00,VWS V14.01,2013-01-13 06:13:00,
2013-01-12 22:18:00,25.8,12.3,30.25,NE,40,0.0,2.0,56,0.00,,,0.00,VWS V14.01,2013-01-13 06:18:00,
2013-01-12 22:23:00,25.6,12.5,30.26,NE,40,0.0,0.0,57,0.00,,,0.00,VWS V14.01,2013-01-13 06:23:00,
2013-01-12 22:28:00,25.4,12.7,30.26,NE,40,0.0,0.0,58,0.00,,,0.00,VWS V14.01,2013-01-13 06:28:00,
2013-01-12 22:33:00,25.1,12.8,30.26,NE,40,0.0,0.0,59,0.00,,,0.00,VWS V14.01,2013-01-13 06:33:00,
2013-01-12 22:38:00,24.8,12.5,30.27,NE,40,0.0,0.0,59,0.00,,,0.00,VWS V14.01,2013-01-13 06:38:00,
2013-01-12 22:43:00,24.6,12.7,30.27,NE,40,0.0,0.0,60,0.00,,,0.00,VWS V14.01,2013-01-13 06:43:00,
2013-01-12 22:48:00,24.4,12.5,30.27,NE,40,0.0,1.0,60,0.00,,,0.00,VWS V14.01,2013-01-13 06:48:00,
2013-01-12 22:53:00,24.3,12.8,30.27,NE,40,0.0,3.0,61,0.00,,,0.00,VWS V14.01,2013-01-13 06:53:00,
2013-01-12 22:58:00,24.1,12.6,30.27,NE,40,0.0,3.0,61,0.00,,,0.00,VWS V14.01,2013-01-13 06:58:00,
2013-01-12 23:03:00,24.0,12.1,30.27,NE,40,0.0,3.0,60,0.00,,,0.00,VWS V14.01,2013-01-13 07:03:00,
2013-01-12 23:08:00,24.0,12.1,30.27,NE,40,0.0,0.0,60,0.00,,,0.00,VWS V14.01,2013-01-13 07:08:00,
2013-01-12 23:13:00,24.2,11.9,30.27,NE,40,0.0,2.0,59,0.00,,,0.00,VWS V14.01,2013-01-13 07:13:00,
2013-01-12 23:18:00,24.3,10.9,30.27,NE,40,0.0,2.0,56,0.00,,,0.00,VWS V14.01,2013-01-13 07:18:00,
2013-01-12 23:23:00,24.5,11.1,30.27,NE,40,0.0,0.0,56,0.00,,,0.00,VWS V14.01,2013-01-13 07:23:00,
2013-01-12 23:28:00,24.7,11.2,30.27,NE,40,0.0,0.0,56,0.00,,,0.00,VWS V14.01,2013-01-13 07:28:00,
2013-01-12 23:33:00,25.0,11.5,30.27,NE,40,0.0,0.0,56,0.00,,,0.00,VWS V14.01,2013-01-13 07:33:00,
2013-01-12 23:38:00,25.1,11.6,30.27,NE,40,0.0,0.0,56,0.00,,,0.00,VWS V14.01,2013-01-13 07:38:00,
2013-01-12 23:43:00,25.4,11.9,30.27,NE,40,0.0,0.0,56,0.00,,,0.00,VWS V14.01,2013-01-13 07:43:00,
2013-01-12 23:48:00,25.6,12.1,30.27,NE,40,0.0,0.0,56,0.00,,,0.00,VWS V14.01,2013-01-13 07:48:00,
2013-01-12 23:53:00,25.7,12.2,30.27,NE,40,0.0,0.0,56,0.00,,,0.00,VWS V14.01,2013-01-13 07:53:00,
2013-01-12 23:58:00,25.8,12.3,30.26,NE,40,0.0,0.0,56,0.00,,,0.00,VWS V14.01,2013-01-13 07:58:00,